User: anonymous   Login
Location: Unspecified
(0.0000°N, 0.0000°E)
Time: 08:59:11
(UTC+00:00)
Language:

STARLINK-5924 - Orbit

View from above orbital plane
View from above orbital plane
View from above satellite
View from above satellite

Ground track
Ground track

The orbit is defined by the following mean orbital elements,

1 55963U          26145.52721365 +.00000000 +00000-0 +31284-5 0 00003
2 55963  70.0005  70.6874 0002960 262.3991  97.6832 14.98330220    00
Epoch (UTC): 25 May 2026 12:39:11
Eccentricity: 0.0002960
inclination: 70.0005°
perigee height: 570 km
apogee height: 574 km
right ascension of ascending node: 70.6874°
argument of perigee: 262.3991°
revolutions per day: 14.98330220
mean anomaly at epoch: 97.6832°

The dashed part of the orbit path shows where the satellite is in the earth's shadow,  

DLR